User: anonymous   Login
Location: Fort Worth, Tx
(32.7431°N, 97.3695°W)
Time: 18:18:06
(UTC-05:00)
Language:

Courier 1B Rocket - Orbit

View from above orbital plane
View from above orbital plane
View from above satellite
View from above satellite

Ground track
Ground track

The orbit data is extracted from the following two-line orbital elements,

1 00059U 60013B   24051.60511273  .00000103  00000-0  23940-4 0  9997
2 00059  28.2469 158.4314 0189163  40.1099 321.3247 13.53059088128289
Epoch (UTC): 20 February 2024 14:31:21
Eccentricity: 0.0189163
inclination: 28.2469°
perigee height: 920 km
apogee height: 1202 km
right ascension of ascending node: 158.4314°
argument of perigee: 40.1099°
revolutions per day: 13.53059088
mean anomaly at epoch: 321.3247°
orbit number at epoch: 12828

The dashed part of the orbit path shows where the satellite is in the earth's shadow,  

DLR